AirNav   ProFlight Series 2 Aviation Headset
 
 1075 users online  

96MI Dick Huvaere's Heliport
Petoskey, Michigan, USA

GOING TO PETOSKEY?


FAA INFORMATION EFFECTIVE 18 JUNE 2020

Location

FAA Identifier: 96MI
Lat/Long: 45-23-44.1000N 084-52-27.6000W
45-23.735000N 084-52.460000W
45.3955833,-84.8743333
(estimated)
Elevation: 675 ft. / 206 m (estimated)
From city: 10 miles NE of PETOSKEY, MI
Time zone: UTC -4 (UTC -5 during Standard Time)
Zip code: 49770

Heliport Operations

Heliport use: Private use. Permission required prior to landing
Activation date: 02/2017
Control tower: no
ARTCC: MINNEAPOLIS CENTER
FSS: LANSING FLIGHT SERVICE STATION
Attendance: 
Wind indicator: no
Segmented circle: no

Heliport Communications

WX AWOS-3 at MGN (2.4 nm NW): 119.925 (231-347-5231)
WX ASOS at PLN (11 nm N): 119.025 (231-539-7700)
WX AWOS-3 at CVX (18 nm W): 120.0 (231-237-9703)

Nearby radio navigation aids

VOR radial/distance  VOR name  Freq  Var
PLNr218/16.6PELLSTON VORTAC111.8006W
GLRr349/24.1GAYLORD VOR/DME109.2006W

 
NDB name  Hdg/Dist  Freq  Var  ID
CHARLEVOIX076/17.639205WCVX -.-. ...- -..-
GRAYLING003/38.835906WGYG --. -.-- --.

Heliport Services

Runway Information

Helipad H1

Dimensions: 35 x 35 ft. / 11 x 11 m
Surface: turf
Latitude: 45-23.735000N
Longitude: 084-52.460000W
Elevation: 675.0 ft.
Traffic pattern: leftleft

Heliport Ownership and Management from official FAA records

Ownership: Privately-owned
Owner: DICK HUVAERE LAND, INC.
1815 FOCHTMAN INDUSTRIAL DR
PETOSKEY, MI 49770
Phone 586-701-3001
Manager: RYAN ROSCIA
1815 FOCHTMAN INDUSTRIAL DR
PETOSKEY, MI 49770
Phone 586-701-3001

Additional Remarks

A PRIVATE HELIPORT TO BE USED ONLY WITH EXPLICIT PERMISSION FROM THE OWNER.
FOR CD CTC MINNEAPOLIS ARTCC AT 651-463-5588.

Instrument Procedures

There are no published instrument procedures at 96MI.

Some nearby airports with instrument procedures:

KMGN - Harbor Springs Airport (2 nm NW)
KPLN - Pellston Regional Airport of Emmet County (11 nm N)
N98 - Boyne City Municipal Airport (12 nm SW)
KBFA - Boyne Mountain Airport (14 nm S)
KCVX - Charlevoix Municipal Airport (18 nm W)
 
Loc | Ops | Rwys | IFR | FBO | Links
Com | Nav | Svcs | Stats | Notes
Aerial photo
No photo
 
Airport distance calculator
Flying to Dick Huvaere's Heliport? Find the distance to fly.

From to 96MI

Sunrise and sunset
Times for 12-Jul-2020
 Local
(UTC-4)
 Zulu
(UTC)
Morning civil twilight05:2809:28
Sunrise06:0510:05
Sunset21:2601:26
Evening civil twilight22:0202:02

Current date and time
Zulu (UTC)  12-Jul-2020 19:38:34
Local (UTC-4)  12-Jul-2020 15:38:34
 
METAR
KMGN 
3nm NW 
121915Z AUTO 30008KT 270V330 10SM SCT035 BKN042 OVC080 22/13 A2987 RMK AO2 T02280134
KPLN 
11nm N 
121854Z AUTO 30013G20KT 10SM OVC035 22/13 A2987 RMK AO2 SLP113 T02170128
KCVX 
18nm W 
121915Z AUTO 30012KT 10SM SCT080 22/15 A2989 RMK AO2 T02190150
TAF
KPLN 
11nm N 
121720Z 1218/1318 31010G19KT P6SM BKN035 FM122200 34009KT P6SM SCT045 FM130400 VRB04KT P6SM FEW250 FM131600 30008KT P6SM SCT050
NOTAMs
Click for the latest NOTAMs
NOTAMs are issued by the DoD/FAA and will open in a separate window not controlled by AirNav.

 

 
 

Would you like to see your business listed on this page?

 If your business provides an interesting product or service to pilots, flight crews, aircraft, or users of the Dick Huvaere's Heliport, you should consider listing it here.  To start the listing process, click on the button below
 
Add a business
 

Other Pages about Dick Huvaere's Heliport

Update a link
 
Copyright © AirNav, LLC. All rights reserved. Privacy Policy  Contact